[[{"header":{"parameterUnit":"m.s-1","parameterCategory":1,"la1":30.2991,"la2":30.254,"lo1":-89.0895,"lo2":-89.0444,"dy":0.0017,"dx":0.0017,"nx":28,"ny":28,"refTime":"2024-03-06T03:00:00:Z","depth":0,"parameterNumber":2,"parameterNumberName":"U-component_of_WINDS"},"data":[0,0,0,0,0,0,0,0,0,0,0,0,0,0,0,0,0,0,0,0,0,0,0,0,0,0,0,0,0,0,0,0,0,0,0,0,0,0,0,0,0,0,0,0,0,0,0,0,0,0,0,0,0,0,0,0,0,0,-2.465,-2.465,0,-2.4619,-2.4619,-2.4619,-2.4577,-2.4576,-2.4575,-2.4575,-2.4544,-2.4544,-2.4544,0,0,0,0,0,0,0,0,0,0,0,0,0,-2.4675,-2.4674,-2.465,-2.465,-2.4649,-2.4619,-2.4619,-2.4619,-2.4577,-2.4576,-2.4575,-2.4574,-2.4544,-2.4544,-2.4544,0,0,0,0,0,0,0,0,0,0,0,0,0,-2.4656,-2.4674,-2.465,-2.4625,-2.4622,-2.4619,-2.4619,-2.4618,-2.4577,-2.4576,-2.4575,-2.4574,-2.4545,-2.4544,-2.4544,-2.4564,0,0,-2.4543,-2.4543,0,0,0,0,0,0,0,0,-2.4657,-2.4655,-2.4629,-2.4627,-2.4624,-2.4601,-2.4616,-2.46,-2.4577,-2.4594,-2.4575,-2.4573,-2.4564,-2.4562,-2.4559,-2.4563,-2.4561,-2.4543,-2.4543,-2.4543,-2.4543,0,0,0,0,0,0,0,-2.4659,-2.4656,-2.4638,-2.4629,-2.4626,-2.4616,-2.4612,-2.4613,-2.4586,-2.4593,-2.459,-2.4586,-2.4562,-2.4559,-2.4558,-2.4561,-2.4543,-2.4543,-2.4543,-2.4543,-2.458,-2.4581,0,0,0,0,0,0,-2.4663,-2.4658,-2.4639,-2.4637,-2.4638,-2.4616,-2.4612,-2.4609,-2.4585,-2.4581,-2.4587,-2.4585,-2.456,-2.4558,-2.4557,-2.4579,-2.4543,-2.4543,-2.4543,-2.4579,-2.4581,-2.4582,0,0,0,0,0,0,-2.4664,-2.4662,-2.464,-2.4646,-2.4643,-2.4617,-2.4614,-2.4609,-2.4606,-2.4581,-2.4576,-2.4589,-2.4559,-2.4557,-2.4563,-2.4577,-2.4543,-2.4543,-2.4578,-2.458,-2.4581,-2.4624,0,0,0,0,0,0,-2.4665,-2.4663,-2.4669,-2.4647,-2.4643,-2.4646,-2.4615,-2.4609,-2.4605,-2.4601,-2.4581,-2.4577,-2.4558,-2.4563,-2.4562,-2.4577,-2.4543,-2.4576,-2.4579,-2.4581,-2.4621,-2.4627,-2.4632,0,0,0,0,0,-2.4666,-2.4683,-2.467,-2.4668,-2.4651,-2.4647,-2.4645,-2.4622,-2.4607,-2.4614,-2.4598,-2.4578,-2.4576,-2.4564,-2.4563,-2.4577,-2.4575,-2.4578,-2.458,-2.4619,-2.4626,-2.4632,0,0,0,0,0,0,-2.4708,-2.4679,-2.4665,-2.4675,-2.4664,-2.464,-2.4648,-2.463,-2.4624,-2.4621,-2.4593,-2.4589,-2.4598,-2.4588,-2.4576,-2.4596,-2.4573,-2.4575,-2.4602,-2.4609,-2.4614,-2.4617,-2.4542,0,0,0,0,0,-2.4718,-2.4718,-2.4693,-2.4704,-2.4699,-2.4675,-2.4672,-2.4656,-2.4644,-2.4639,-2.4624,-2.4613,-2.461,-2.4608,-2.4604,-2.4619,-2.4615,-2.4628,-2.4634,-2.4638,-2.4641,-2.4649,-2.4656,-2.459,-2.459,-2.459,0,0,-2.474,-2.4724,-2.4726,-2.4712,-2.4702,-2.4702,-2.4671,-2.4673,-2.4673,-2.4639,-2.4644,-2.4632,-2.4619,-2.4629,-2.4633,-2.4621,-2.4658,-2.4642,-2.4645,-2.4646,-2.4653,-2.4659,-2.4665,-2.4592,-2.4591,-2.4591,0,0,-2.478,-2.4767,-2.4776,-2.4766,-2.475,-2.4734,-2.4736,-2.4716,-2.4707,-2.4711,-2.4686,-2.4686,-2.4681,-2.4672,-2.4667,-2.4704,-2.4686,-2.4704,-2.4732,-2.4741,-2.4746,-2.475,-2.4765,-2.477,-2.4706,-2.4706,-2.4707,0,-2.4809,-2.4808,-2.4783,-2.4786,-2.4781,-2.475,-2.4759,-2.4751,-2.4735,-2.4733,-2.4719,-2.4713,-2.4701,-2.471,-2.4719,-2.4716,-2.4718,-2.4706,-2.4747,-2.4751,-2.4755,-2.4769,-2.4774,-2.4709,-2.4709,-2.4708,-2.4708,0,-2.4845,-2.4845,-2.4854,-2.4839,-2.4835,-2.4842,-2.4818,-2.4817,-2.4801,-2.4786,-2.4791,-2.4776,-2.4769,-2.477,-2.4754,-2.4777,-2.477,-2.4752,-2.4728,-2.4764,-2.4776,-2.4781,-2.4712,-2.4711,-2.4711,-2.471,0,0,-2.4911,-2.4883,-2.4886,-2.488,-2.486,-2.486,-2.4865,-2.4858,-2.4858,-2.4848,-2.4852,-2.4849,-2.4833,-2.4827,-2.481,-2.4817,-2.4849,-2.4799,-2.4798,-2.481,-2.4875,-2.4889,-2.4896,-2.4836,-2.4837,-2.4838,-2.4876,0,-2.4949,-2.4955,-2.4933,-2.4946,-2.4946,-2.4916,-2.4921,-2.491,-2.4896,-2.4895,-2.488,-2.4879,-2.4857,-2.4853,-2.4859,-2.4844,-2.4862,-2.4841,-2.4841,-2.4842,-2.4847,-2.4902,-2.4917,-2.4954,-2.4881,-2.4882,-2.4882,0,-2.4993,-2.4985,-2.4998,-2.4979,-2.4978,-2.4982,-2.4974,-2.4973,-2.496,-2.495,-2.4944,-2.4924,-2.4929,-2.4905,-2.4912,-2.4898,-2.4896,-2.4889,-2.489,-2.489,-2.4865,-2.4905,-2.4965,-2.4971,-2.4889,-2.4889,-2.4888,0,-2.5041,-2.5034,-2.5041,-2.5036,-2.5014,-2.5018,-2.5008,-2.4994,-2.4992,-2.4984,-2.4983,-2.4976,-2.4973,-2.4969,-2.4948,-2.4933,-2.4957,-2.4932,-2.495,-2.4951,-2.4958,-2.4958,-2.502,-2.4955,-2.4955,-2.4955,-2.4954,0,-2.5086,-2.5095,-2.5063,-2.5067,-2.5077,-2.5051,-2.5062,-2.505,-2.5038,-2.504,-2.5014,-2.5017,-2.4989,-2.4989,-2.4972,-2.4981,-2.4979,-2.4972,-2.4968,-2.4975,-2.4976,-2.4975,-2.4972,-2.4956,-2.4956,-2.4955,-2.4955,0,-2.5142,-2.5121,-2.5127,-2.5105,-2.5099,-2.5108,-2.5089,-2.5093,-2.5078,-2.5081,-2.508,-2.5057,-2.5055,-2.5034,-2.5028,-2.5017,-2.5032,-2.5023,-2.5037,-2.5034,-2.5054,-2.5053,-2.5119,-2.5126,-2.5055,-2.5056,-2.5056,0,-2.5173,-2.5179,-2.5158,-2.5157,-2.5149,-2.5149,-2.5146,-2.5121,-2.5119,-2.5105,-2.5111,-2.5107,-2.5103,-2.5102,-2.5085,-2.508,-2.5071,-2.5094,-2.507,-2.5078,-2.5073,-2.5074,-2.5075,-2.51,-2.5101,-2.5102,-2.5102,0,-2.523,-2.5219,-2.5215,-2.5208,-2.5205,-2.5199,-2.5191,-2.5192,-2.5164,-2.5163,-2.5162,-2.5158,-2.5152,-2.5149,-2.5142,-2.5133,-2.5114,-2.511,-2.5114,-2.5122,-2.5131,-2.5128,-2.5052,-2.5109,-2.5108,-2.5108,-2.5107,-2.5107,-2.5275,-2.528,-2.5266,-2.5263,-2.5254,-2.5247,-2.525,-2.5235,-2.5233,-2.5226,-2.5211,-2.5212,-2.5199,-2.5187,-2.518,-2.5181,-2.5169,-2.5175,-2.5176,-2.5178,-2.5183,-2.513,-2.5179,-2.5179,-2.5179,-2.5178,-2.5178,0,-2.5331,-2.5321,-2.5318,-2.5308,-2.5306,-2.5287,-2.5277,-2.5277,-2.5278,-2.5268,-2.5264,-2.5263,-2.526,-2.5243,-2.5238,-2.5242,-2.5233,-2.5242,-2.5242,-2.5241,-2.5193,-2.519,-2.5249,-2.5249,-2.5249,-2.5249,-2.5249,-2.5249,-2.5361,-2.5368,-2.5356,-2.5359,-2.5348,-2.5349,-2.5345,-2.5339,-2.5331,-2.533,-2.5327,-2.5316,-2.5303,-2.5298,-2.5295,-2.529,-2.529,-2.5302,-2.5294,-2.525,-2.5244,-2.5237,-2.5235,-2.5302,-2.5302,-2.5342,-2.5342,-2.5342]},{"header":{"parameterUnit":"m.s-1","parameterCategory":1,"la1":30.2991,"la2":30.254,"lo1":-89.0895,"lo2":-89.0444,"dy":0.0017,"dx":0.0017,"nx":28,"ny":28,"refTime":"2024-03-06T03:00:00:Z","depth":0,"parameterNumber":3,"parameterNumberName":"V-component_of_WINDS"},"data":[0,0,0,0,0,0,0,0,0,0,0,0,0,0,0,0,0,0,0,0,0,0,0,0,0,0,0,0,0,0,0,0,0,0,0,0,0,0,0,0,0,0,0,0,0,0,0,0,0,0,0,0,0,0,0,0,0,0,-1.1145,-1.1145,0,-1.1137,-1.1137,-1.1136,-1.1116,-1.1115,-1.1115,-1.1114,-1.1106,-1.1106,-1.1106,0,0,0,0,0,0,0,0,0,0,0,0,0,-1.1144,-1.1144,-1.1145,-1.1145,-1.1145,-1.1137,-1.1137,-1.1136,-1.1116,-1.1115,-1.1115,-1.1114,-1.1106,-1.1106,-1.1106,0,0,0,0,0,0,0,0,0,0,0,0,0,-1.1141,-1.1144,-1.1145,-1.1134,-1.1133,-1.1137,-1.1137,-1.1136,-1.1116,-1.1115,-1.1114,-1.1114,-1.1106,-1.1106,-1.1106,-1.1121,0,0,-1.1107,-1.1107,0,0,0,0,0,0,0,0,-1.1141,-1.1141,-1.1135,-1.1134,-1.1133,-1.1126,-1.1133,-1.1131,-1.1116,-1.1122,-1.1114,-1.1113,-1.1113,-1.1113,-1.1113,-1.1121,-1.1121,-1.1107,-1.1107,-1.1108,-1.1108,0,0,0,0,0,0,0,-1.1142,-1.1141,-1.1142,-1.1135,-1.1134,-1.1129,-1.1128,-1.1133,-1.1122,-1.1122,-1.112,-1.1119,-1.1113,-1.1113,-1.1112,-1.112,-1.1107,-1.1107,-1.1108,-1.1108,-1.114,-1.1141,0,0,0,0,0,0,-1.1143,-1.1142,-1.1142,-1.1142,-1.1136,-1.113,-1.1128,-1.1129,-1.1121,-1.112,-1.112,-1.1118,-1.1112,-1.1112,-1.1112,-1.1129,-1.1108,-1.1108,-1.1108,-1.114,-1.1141,-1.1141,0,0,0,0,0,0,-1.1143,-1.1144,-1.1143,-1.1141,-1.1141,-1.113,-1.1132,-1.1129,-1.1129,-1.112,-1.1118,-1.1122,-1.1112,-1.1112,-1.1119,-1.1129,-1.1108,-1.1108,-1.1139,-1.114,-1.1141,-1.1164,0,0,0,0,0,0,-1.1144,-1.1144,-1.1149,-1.1142,-1.1141,-1.115,-1.1132,-1.113,-1.113,-1.1128,-1.1121,-1.112,-1.1111,-1.1119,-1.1119,-1.1129,-1.1108,-1.1138,-1.1139,-1.1141,-1.1162,-1.1165,-1.1168,0,0,0,0,0,-1.1144,-1.1156,-1.115,-1.115,-1.1147,-1.115,-1.115,-1.114,-1.1131,-1.1136,-1.113,-1.112,-1.1127,-1.112,-1.112,-1.113,-1.1137,-1.1139,-1.1141,-1.1161,-1.1165,-1.1168,0,0,0,0,0,0,-1.1165,-1.1155,-1.1148,-1.1158,-1.1155,-1.1147,-1.1153,-1.1144,-1.1144,-1.1142,-1.113,-1.1129,-1.1138,-1.1134,-1.1126,-1.1144,-1.1131,-1.1133,-1.1146,-1.115,-1.1153,-1.1153,-1.1109,0,0,0,0,0,-1.1171,-1.1174,-1.1165,-1.1175,-1.1174,-1.1164,-1.1165,-1.1157,-1.1154,-1.1153,-1.1147,-1.1144,-1.1146,-1.1148,-1.1149,-1.1161,-1.116,-1.1168,-1.1171,-1.1174,-1.1175,-1.1182,-1.1186,-1.1147,-1.1147,-1.1147,0,0,-1.1184,-1.1178,-1.1181,-1.1179,-1.1176,-1.118,-1.1163,-1.1167,-1.117,-1.1153,-1.116,-1.1156,-1.1152,-1.1162,-1.1167,-1.116,-1.1186,-1.1176,-1.1178,-1.1178,-1.1184,-1.1188,-1.1191,-1.1148,-1.1147,-1.1147,0,0,-1.1208,-1.1204,-1.1212,-1.1209,-1.1205,-1.1198,-1.12,-1.1193,-1.119,-1.1196,-1.1184,-1.1187,-1.119,-1.1188,-1.1187,-1.1211,-1.1202,-1.1212,-1.1228,-1.1234,-1.1237,-1.124,-1.1249,-1.1252,-1.1213,-1.1213,-1.1213,0,-1.1224,-1.1229,-1.1217,-1.1223,-1.1222,-1.1207,-1.1215,-1.1213,-1.1209,-1.121,-1.1202,-1.1206,-1.1202,-1.1212,-1.1218,-1.1217,-1.1219,-1.1212,-1.1238,-1.124,-1.1243,-1.1251,-1.1254,-1.1215,-1.1214,-1.1214,-1.1214,0,-1.1249,-1.1252,-1.1259,-1.1256,-1.1256,-1.1263,-1.1253,-1.1255,-1.1247,-1.1241,-1.1248,-1.1243,-1.1243,-1.1245,-1.1238,-1.1253,-1.1249,-1.124,-1.1227,-1.1248,-1.1256,-1.1259,-1.1216,-1.1216,-1.1216,-1.1215,0,0,-1.1287,-1.1277,-1.128,-1.1278,-1.1272,-1.1275,-1.1281,-1.128,-1.1282,-1.128,-1.1285,-1.1288,-1.128,-1.1279,-1.1271,-1.1277,-1.1296,-1.1267,-1.1267,-1.1273,-1.1314,-1.1321,-1.1325,-1.129,-1.1291,-1.1291,-1.1314,0,-1.131,-1.1319,-1.131,-1.1321,-1.1324,-1.131,-1.1315,-1.1312,-1.1307,-1.1309,-1.1303,-1.1306,-1.1294,-1.1294,-1.1299,-1.1293,-1.1305,-1.1291,-1.1295,-1.1295,-1.1297,-1.1329,-1.1337,-1.1359,-1.1317,-1.1318,-1.1318,0,-1.1338,-1.1337,-1.1349,-1.1343,-1.1344,-1.1349,-1.1348,-1.135,-1.1346,-1.1342,-1.1341,-1.1332,-1.1338,-1.1324,-1.1332,-1.1323,-1.1324,-1.1322,-1.1322,-1.1323,-1.1308,-1.133,-1.1366,-1.1369,-1.1323,-1.1322,-1.1322,0,-1.1365,-1.1367,-1.1374,-1.1373,-1.1366,-1.1369,-1.1366,-1.1362,-1.1363,-1.1362,-1.1362,-1.1362,-1.1362,-1.1363,-1.1354,-1.1345,-1.1363,-1.1349,-1.136,-1.136,-1.1364,-1.1364,-1.1401,-1.1365,-1.1365,-1.1364,-1.1364,0,-1.1392,-1.14,-1.1386,-1.1391,-1.1399,-1.1388,-1.1397,-1.1392,-1.1389,-1.1393,-1.138,-1.1384,-1.1372,-1.1374,-1.1367,-1.1375,-1.1375,-1.1372,-1.137,-1.1374,-1.1374,-1.1374,-1.1372,-1.1365,-1.1365,-1.1365,-1.1365,0,-1.1423,-1.1414,-1.1422,-1.1414,-1.1412,-1.1419,-1.1412,-1.1416,-1.141,-1.1415,-1.1416,-1.1406,-1.1409,-1.14,-1.1401,-1.1396,-1.1407,-1.1403,-1.1409,-1.1407,-1.1419,-1.1418,-1.1457,-1.1462,-1.1422,-1.1423,-1.1423,0,-1.1441,-1.1447,-1.144,-1.1441,-1.1439,-1.1441,-1.1442,-1.1431,-1.1432,-1.1429,-1.1433,-1.1435,-1.1435,-1.144,-1.1433,-1.1434,-1.1429,-1.1443,-1.1429,-1.1433,-1.143,-1.143,-1.1431,-1.1446,-1.1446,-1.1447,-1.1447,0,-1.1474,-1.1469,-1.147,-1.147,-1.1471,-1.147,-1.1468,-1.147,-1.1459,-1.1461,-1.1463,-1.1463,-1.1464,-1.1466,-1.1465,-1.1462,-1.1453,-1.1451,-1.1454,-1.1457,-1.1461,-1.1459,-1.1417,-1.1451,-1.145,-1.145,-1.145,-1.145,-1.1499,-1.1504,-1.1499,-1.1501,-1.1499,-1.1498,-1.1501,-1.1495,-1.1497,-1.1497,-1.149,-1.1494,-1.1491,-1.1489,-1.1487,-1.149,-1.1484,-1.1487,-1.1488,-1.1489,-1.1492,-1.146,-1.149,-1.149,-1.1489,-1.1489,-1.1489,0,-1.1531,-1.1528,-1.153,-1.1528,-1.1529,-1.152,-1.1518,-1.152,-1.1523,-1.152,-1.1521,-1.1524,-1.1526,-1.1519,-1.152,-1.1524,-1.1519,-1.1524,-1.1524,-1.1524,-1.1497,-1.1495,-1.1528,-1.1528,-1.1528,-1.1528,-1.1528,-1.1528,-1.1548,-1.1556,-1.1551,-1.1557,-1.1553,-1.1557,-1.1556,-1.1555,-1.1553,-1.1557,-1.1558,-1.1554,-1.155,-1.155,-1.1551,-1.155,-1.1551,-1.1557,-1.1554,-1.1529,-1.1525,-1.1522,-1.152,-1.1557,-1.1557,-1.158,-1.158,-1.158]}]]